Year,Month,Day,Hour,Minute,Value (Times are PST for barometer in hPa)
2022,10,04,10,30,965.83
2022,10,04,10,31,965.83
2022,10,04,10,32,965.83
2022,10,04,10,33,965.83
2022,10,04,10,34,966.32
2022,10,04,10,35,967.57
2022,10,04,10,36,967.19
2022,10,04,10,37,967.19
2022,10,04,10,38,967.28
2022,10,04,10,39,967.63
2022,10,04,10,40,968.00
2022,10,04,10,41,969.16
2022,10,04,10,42,969.29
2022,10,04,10,43,969.29
2022,10,04,10,44,969.25
2022,10,04,10,45,969.11
2022,10,04,10,46,969.17
2022,10,04,10,47,969.08
2022,10,04,10,48,969.29
2022,10,04,10,49,968.69
2022,10,04,10,50,966.88
2022,10,04,10,51,967.29
2022,10,04,10,52,968.54
2022,10,04,10,53,968.09
2022,10,04,10,54,966.29
2022,10,04,10,55,966.07
2022,10,04,10,56,966.61
2022,10,04,10,57,966.61
2022,10,04,10,58,966.61
2022,10,04,10,59,966.61
2022,10,04,11,00,966.61
2022,10,04,11,01,966.44
2022,10,04,11,02,966.01
2022,10,04,11,03,966.27
2022,10,04,11,04,966.28
2022,10,04,11,05,966.00
2022,10,04,11,06,965.79
2022,10,04,11,07,965.19
2022,10,04,11,08,965.19
2022,10,04,11,09,965.19
2022,10,04,11,10,965.19
2022,10,04,11,11,965.84
2022,10,04,11,12,967.72
2022,10,04,11,13,967.38
2022,10,04,11,14,967.05
2022,10,04,11,15,967.05
2022,10,04,11,16,967.05
2022,10,04,11,17,967.18
2022,10,04,11,18,967.56
2022,10,04,11,19,967.45
2022,10,04,11,20,967.02
2022,10,04,11,21,967.02
2022,10,04,11,22,967.02
2022,10,04,11,23,967.02
2022,10,04,11,24,966.91
2022,10,04,11,25,966.51
2022,10,04,11,26,966.51
2022,10,04,11,27,966.53
2022,10,04,11,28,966.61
2022,10,04,11,29,966.74
2022,10,04,11,30,967.16
2022,10,04,11,31,967.22
2022,10,04,11,32,967.16
2022,10,04,11,33,966.98
2022,10,04,11,34,966.98
2022,10,04,11,35,966.99
2022,10,04,11,36,967.02
2022,10,04,11,37,967.38
2022,10,04,11,38,968.70
2022,10,04,11,39,968.73
2022,10,04,11,40,968.93
2022,10,04,11,41,969.16
2022,10,04,11,42,969.36
2022,10,04,11,43,969.20
2022,10,04,11,44,969.23
2022,10,04,11,45,969.18
2022,10,04,11,46,969.22
2022,10,04,11,47,969.32
2022,10,04,11,48,969.24
2022,10,04,11,49,969.18
2022,10,04,11,50,968.64
2022,10,04,11,51,968.64
2022,10,04,11,52,968.64
2022,10,04,11,53,967.86
2022,10,04,11,54,965.53
2022,10,04,11,55,965.53
2022,10,04,11,56,965.53
2022,10,04,11,57,965.53
2022,10,04,11,58,965.53
2022,10,04,11,59,965.53
2022,10,04,12,00,965.42
2022,10,04,12,01,964.90
2022,10,04,12,02,964.47
2022,10,04,12,03,964.47
2022,10,04,12,04,964.21
2022,10,04,12,05,964.21
2022,10,04,12,06,964.24
2022,10,04,12,07,964.34
2022,10,04,12,08,964.34
2022,10,04,12,09,964.32
2022,10,04,12,10,964.27
2022,10,04,12,11,964.01
2022,10,04,12,12,963.19
2022,10,04,12,13,963.19
2022,10,04,12,14,963.19
2022,10,04,12,15,963.19
2022,10,04,12,16,963.19
2022,10,04,12,17,963.47
2022,10,04,12,18,964.21
2022,10,04,12,19,963.83
2022,10,04,12,20,963.83
2022,10,04,12,21,964.00
2022,10,04,12,22,964.38
2022,10,04,12,23,964.08
2022,10,04,12,24,964.51
2022,10,04,12,25,964.51
2022,10,04,12,26,964.27
2022,10,04,12,27,963.45
2022,10,04,12,28,963.73
2022,10,04,12,29,963.73
2022,10,04,12,30,963.90
2022,10,04,12,31,964.41
2022,10,04,12,32,964.41
2022,10,04,12,33,964.47
2022,10,04,12,34,964.76
2022,10,04,12,35,965.15
2022,10,04,12,36,965.19
2022,10,04,12,37,965.46
2022,10,04,12,38,965.46
2022,10,04,12,39,965.59
2022,10,04,12,40,965.89
2022,10,04,12,41,965.40
2022,10,04,12,42,964.95
2022,10,04,12,43,964.99
2022,10,04,12,44,964.85
2022,10,04,12,45,965.19
2022,10,04,12,46,964.93
2022,10,04,12,47,963.90
2022,10,04,12,48,963.58
2022,10,04,12,49,962.35
2022,10,04,12,50,962.21
2022,10,04,12,51,962.21
2022,10,04,12,52,962.21
2022,10,04,12,53,962.85
2022,10,04,12,54,965.43
2022,10,04,12,55,965.43
2022,10,04,12,56,965.43
2022,10,04,12,57,965.43
2022,10,04,12,58,965.43
2022,10,04,12,59,965.43
2022,10,04,13,00,965.07
2022,10,04,13,01,964.08
2022,10,04,13,02,964.48
2022,10,04,13,03,964.53
2022,10,04,13,04,964.68
2022,10,04,13,05,964.81
2022,10,04,13,06,965.19
2022,10,04,13,07,964.85
2022,10,04,13,08,963.83
2022,10,04,13,09,963.83
2022,10,04,13,10,963.83
2022,10,04,13,11,963.83
2022,10,04,13,12,964.08
2022,10,04,13,13,964.82
2022,10,04,13,14,964.82
2022,10,04,13,15,964.82
2022,10,04,13,16,964.19
2022,10,04,13,17,961.67
2022,10,04,13,18,961.67
2022,10,04,13,19,961.67
2022,10,04,13,20,962.08
2022,10,04,13,21,963.29
2022,10,04,13,22,963.29
2022,10,04,13,23,963.29
2022,10,04,13,24,963.36
2022,10,04,13,25,963.74
2022,10,04,13,26,964.14
2022,10,04,13,27,964.04
2022,10,04,13,28,964.04
2022,10,04,13,29,964.00
2022,10,04,13,30,963.83
2022,10,04,13,31,963.83
2022,10,04,13,32,964.07
2022,10,04,13,33,965.00
2022,10,04,13,34,964.78
2022,10,04,13,35,964.78
2022,10,04,13,36,964.78
2022,10,04,13,37,964.78
2022,10,04,13,38,964.78
2022,10,04,13,39,964.78
2022,10,04,13,40,964.78
2022,10,04,13,41,964.78
2022,10,04,13,42,965.81
2022,10,04,13,43,969.93
2022,10,04,13,44,969.93
2022,10,04,13,45,969.93
2022,10,04,13,46,970.27
2022,10,04,13,47,971.52
2022,10,04,13,48,971.52
2022,10,04,13,49,971.52
2022,10,04,13,50,971.52
2022,10,04,13,51,971.15
2022,10,04,13,52,969.74
2022,10,04,13,53,970.01
2022,10,04,13,54,970.30
2022,10,04,13,55,970.30
2022,10,04,13,56,970.22
2022,10,04,13,57,969.79
2022,10,04,13,58,969.72
2022,10,04,13,59,969.47
2022,10,04,14,00,969.67
2022,10,04,14,01,969.43
2022,10,04,14,02,969.57
2022,10,04,14,03,969.87
2022,10,04,14,04,969.75
2022,10,04,14,05,969.76
2022,10,04,14,06,969.85
2022,10,04,14,07,969.84
2022,10,04,14,08,969.82
2022,10,04,14,09,969.57
2022,10,04,14,10,969.71
2022,10,04,14,11,969.50
2022,10,04,14,12,969.86
2022,10,04,14,13,969.57
2022,10,04,14,14,969.64
2022,10,04,14,15,969.72
2022,10,04,14,16,969.98
2022,10,04,14,17,969.80
2022,10,04,14,18,969.77
2022,10,04,14,19,969.52
2022,10,04,14,20,969.34
2022,10,04,14,21,969.35
2022,10,04,14,22,969.35
2022,10,04,14,23,968.81
2022,10,04,14,24,968.93
2022,10,04,14,25,969.39
2022,10,04,14,26,969.15
2022,10,04,14,27,968.50
2022,10,04,14,28,968.77
2022,10,04,14,29,968.47
2022,10,04,14,30,968.47
2022,10,04,14,31,968.47
2022,10,04,14,32,968.47
2022,10,04,14,33,968.47
2022,10,04,14,34,968.47
2022,10,04,14,35,968.47
2022,10,04,14,36,968.47
2022,10,04,14,37,968.47
2022,10,04,14,38,968.47
2022,10,04,14,39,968.47
2022,10,04,14,40,968.47
2022,10,04,14,41,965.41
2022,10,04,14,42,953.17
2022,10,04,14,43,952.63
2022,10,04,14,44,950.46
2022,10,04,14,45,950.46
2022,10,04,14,46,950.46
2022,10,04,14,47,950.46
2022,10,04,14,48,950.46
2022,10,04,14,49,950.46
2022,10,04,14,50,950.46
2022,10,04,14,51,950.46
2022,10,04,14,52,950.46
2022,10,04,14,53,950.46
2022,10,04,14,54,950.46
2022,10,04,14,55,950.46
2022,10,04,14,56,950.46
2022,10,04,14,57,950.46
2022,10,04,14,58,950.46
2022,10,04,14,59,950.46
2022,10,04,15,00,950.46
2022,10,04,15,01,950.46
2022,10,04,15,02,950.46
2022,10,04,15,03,950.46
2022,10,04,15,04,950.46
2022,10,04,15,05,949.68
2022,10,04,15,06,946.56
2022,10,04,15,07,946.56
2022,10,04,15,08,946.56
2022,10,04,15,09,947.34
2022,10,04,15,10,950.46
2022,10,04,15,11,950.46
2022,10,04,15,12,951.01
2022,10,04,15,13,953.20
2022,10,04,15,14,953.20
2022,10,04,15,15,953.20
2022,10,04,15,16,953.20
2022,10,04,15,17,953.20
2022,10,04,15,18,955.62
2022,10,04,15,19,968.46
2022,10,04,15,20,968.35
2022,10,04,15,21,968.81
2022,10,04,15,22,968.91
2022,10,04,15,23,969.33
2022,10,04,15,24,969.58
2022,10,04,15,25,969.99
2022,10,04,15,26,970.23
2022,10,04,15,27,970.54
2022,10,04,15,28,971.75
2022,10,04,15,29,971.97
2022,10,04,15,30,971.83
2022,10,04,15,31,971.83
2022,10,04,15,32,972.16
2022,10,04,15,33,973.47
2022,10,04,15,34,973.38
2022,10,04,15,35,973.38
2022,10,04,15,36,973.38
2022,10,04,15,37,973.38
2022,10,04,15,38,971.36
2022,10,04,15,39,963.29
2022,10,04,15,40,963.58
2022,10,04,15,41,964.85
2022,10,04,15,42,965.43
2022,10,04,15,43,965.70
2022,10,04,15,44,965.77
2022,10,04,15,45,965.17
2022,10,04,15,46,964.98
2022,10,04,15,47,964.41
2022,10,04,15,48,964.87
2022,10,04,15,49,966.71
2022,10,04,15,50,966.71
2022,10,04,15,51,966.71
2022,10,04,15,52,966.71
2022,10,04,15,53,966.71
2022,10,04,15,54,966.71
2022,10,04,15,55,966.71
2022,10,04,15,56,966.85
2022,10,04,15,57,967.35
2022,10,04,15,58,967.20
2022,10,04,15,59,967.31
2022,10,04,16,00,967.72
2022,10,04,16,01,968.09
2022,10,04,16,02,968.26
2022,10,04,16,03,968.49
2022,10,04,16,04,968.39
2022,10,04,16,05,968.37
2022,10,04,16,06,968.84
2022,10,04,16,07,969.03
2022,10,04,16,08,968.78
2022,10,04,16,09,968.92
2022,10,04,16,10,968.81
2022,10,04,16,11,968.81
2022,10,04,16,12,968.81
2022,10,04,16,13,968.81
2022,10,04,16,14,968.81
2022,10,04,16,15,968.81
2022,10,04,16,16,968.81
2022,10,04,16,17,968.81
2022,10,04,16,18,968.81
2022,10,04,16,19,968.81
2022,10,04,16,20,968.81
2022,10,04,16,21,968.81
2022,10,04,16,22,968.81
2022,10,04,16,23,968.81
2022,10,04,16,24,968.81
2022,10,04,16,25,968.81
2022,10,04,16,26,968.81
2022,10,04,16,27,968.81
2022,10,04,16,28,968.81
2022,10,04,16,29,968.81
2022,10,04,16,30,968.81
2022,10,04,16,31,968.81
2022,10,04,16,32,968.81
2022,10,04,16,33,968.81
2022,10,04,16,34,968.81
2022,10,04,16,35,968.81
2022,10,04,16,36,968.81
2022,10,04,16,37,968.81
2022,10,04,16,38,968.81
2022,10,04,16,39,968.81
2022,10,04,16,40,968.81
2022,10,04,16,41,968.81
2022,10,04,16,42,968.81
2022,10,04,16,43,968.81
2022,10,04,16,44,968.81
2022,10,04,16,45,968.81
2022,10,04,16,46,968.81
2022,10,04,16,47,968.81
2022,10,04,17,13,928.14
2022,10,04,17,14,928.14
2022,10,04,17,15,928.14
2022,10,04,17,16,928.14
2022,10,04,17,17,928.14
2022,10,04,17,18,928.14
2022,10,04,17,19,928.14
2022,10,04,17,20,928.14
2022,10,04,17,21,928.14
2022,10,04,17,22,928.14
2022,10,04,17,23,928.14
2022,10,04,17,24,928.14
2022,10,04,17,25,928.14
2022,10,04,17,26,928.14
2022,10,04,17,27,928.14
2022,10,04,17,28,928.14
2022,10,04,17,29,928.14
2022,10,04,17,30,928.91
2022,10,04,17,31,932.00
2022,10,04,17,32,932.00
2022,10,04,17,33,932.00
2022,10,04,17,34,932.00
2022,10,04,17,35,932.00
2022,10,04,17,36,932.00
2022,10,04,17,37,932.00
2022,10,04,17,38,932.00
2022,10,04,17,39,932.00
2022,10,04,17,40,932.00
2022,10,04,17,41,932.00
2022,10,04,17,42,932.00
2022,10,04,17,43,932.00
2022,10,04,17,44,932.00
2022,10,04,17,45,932.00
2022,10,04,17,46,932.00
2022,10,04,17,47,932.00
2022,10,04,17,48,932.00
2022,10,04,17,49,932.00
2022,10,04,17,50,932.00
2022,10,04,17,51,932.00
2022,10,04,17,52,932.00
2022,10,04,17,53,932.00
2022,10,04,17,54,932.00
2022,10,04,17,55,932.00
2022,10,04,17,56,932.00
2022,10,04,17,57,932.00
2022,10,04,17,58,932.00
2022,10,04,17,59,932.00
2022,10,04,18,00,932.00
2022,10,04,18,01,932.00
2022,10,04,18,02,932.00
2022,10,04,18,03,950.93
2022,10,04,18,04,1058.21
2022,10,04,18,05,1058.21
2022,10,04,18,06,1058.21
2022,10,04,18,07,1058.21
2022,10,04,18,08,1058.21
2022,10,04,18,09,1058.21
2022,10,04,18,10,1058.21
2022,10,04,18,11,1058.21
2022,10,04,18,12,1058.21
2022,10,04,18,13,1058.21
2022,10,04,18,14,1058.21
2022,10,04,18,15,1058.21
2022,10,04,18,16,1058.21
2022,10,04,18,17,1058.21
2022,10,04,18,18,1058.21
2022,10,04,18,19,1058.21
2022,10,04,18,20,1058.21
2022,10,04,18,21,1058.21
2022,10,04,18,22,1058.21
2022,10,04,18,23,1058.21
2022,10,04,18,24,1058.21
2022,10,04,18,25,1058.21
2022,10,04,18,26,1058.21
2022,10,04,18,27,1058.21
2022,10,04,18,28,1058.21
2022,10,04,18,29,1058.21
2022,10,04,18,30,1058.21
2022,10,04,18,31,1058.21
2022,10,04,18,32,1058.21
2022,10,04,18,33,1058.21
2022,10,04,18,34,1058.21
2022,10,04,18,35,1058.21
2022,10,04,18,36,1058.21
2022,10,04,18,37,1058.21
2022,10,04,18,38,1058.21
2022,10,04,18,39,1058.21
2022,10,04,18,40,1058.21
2022,10,04,18,41,1058.21
2022,10,04,18,42,1058.21
2022,10,04,18,43,1058.21
2022,10,04,18,44,1058.21
2022,10,04,18,45,1058.21
2022,10,04,18,46,1058.21
2022,10,04,18,47,1058.21
2022,10,04,18,48,1058.21
2022,10,04,18,49,1058.21
2022,10,04,18,50,1058.21
2022,10,04,18,51,1058.21
2022,10,04,18,52,1058.21
2022,10,04,18,53,1058.21
2022,10,04,18,54,1058.21
2022,10,04,18,55,1058.21
2022,10,04,18,56,1058.21
2022,10,04,18,57,1058.21
2022,10,04,18,58,1058.21
2022,10,04,18,59,1058.21
2022,10,04,19,00,1058.21
2022,10,04,19,01,1058.21
2022,10,04,19,02,1058.21
2022,10,04,19,03,1058.21
2022,10,04,19,04,1058.21
2022,10,04,19,05,1058.21
2022,10,04,19,06,1058.21
2022,10,04,19,07,1058.21
2022,10,04,19,08,1058.21
2022,10,04,19,09,1058.21
2022,10,04,19,10,1058.21
2022,10,04,19,11,1058.21
2022,10,04,19,12,1058.21
2022,10,04,19,13,1058.21
2022,10,04,19,14,1058.21
2022,10,04,19,15,1058.21
2022,10,04,19,16,1058.21
2022,10,04,19,17,1058.21
2022,10,04,19,18,1058.21
2022,10,04,19,19,1058.21
2022,10,04,19,20,1058.21
2022,10,04,19,21,1058.21
2022,10,04,19,22,1058.21
2022,10,04,19,23,1058.21
2022,10,04,19,24,1058.21
2022,10,04,19,25,1058.21
2022,10,04,19,26,1058.21
2022,10,04,19,27,1058.21
2022,10,04,19,28,1058.21
2022,10,04,19,29,1058.21
2022,10,04,19,30,1058.21
2022,10,04,19,31,1058.21
2022,10,04,19,32,1058.21
2022,10,04,19,33,1058.21
2022,10,04,19,34,1058.21
2022,10,04,19,35,1058.21
2022,10,04,19,36,1058.21
2022,10,04,19,37,1058.21
2022,10,04,19,38,1058.21
2022,10,04,19,39,1058.21
2022,10,04,19,40,1058.21
2022,10,04,19,41,1058.21
2022,10,04,19,42,1058.21
2022,10,04,19,43,1042.17
2022,10,04,19,44,905.83
2022,10,04,19,45,905.83
2022,10,04,19,46,905.83
2022,10,04,19,47,905.83
2022,10,04,19,48,905.83
2022,10,04,19,49,905.83
2022,10,04,19,50,905.83
2022,10,04,19,51,905.83
2022,10,04,19,52,905.83
2022,10,04,19,53,905.83
2022,10,04,19,54,905.83
2022,10,04,19,55,905.83
2022,10,04,19,56,905.83
2022,10,04,19,57,905.83
2022,10,04,19,58,905.83
2022,10,04,19,59,905.83
2022,10,04,20,00,905.83
2022,10,04,20,01,905.83
2022,10,04,20,02,905.83
2022,10,04,20,03,905.83
2022,10,04,20,04,905.83
2022,10,04,20,05,905.83
2022,10,04,20,06,905.83
2022,10,04,20,07,905.83
2022,10,04,20,08,905.83
2022,10,04,20,09,905.83
2022,10,04,20,10,905.83
2022,10,04,20,11,905.83
2022,10,04,20,12,905.83
2022,10,04,20,13,905.83
2022,10,04,20,14,905.83
2022,10,04,20,15,905.83
2022,10,04,20,16,905.83
2022,10,04,20,17,905.83
2022,10,04,20,18,905.83
2022,10,04,20,19,905.83
2022,10,04,20,20,905.83
2022,10,04,20,21,905.83
2022,10,04,20,22,905.83
2022,10,04,20,23,905.83
2022,10,04,20,24,905.83
2022,10,04,20,25,905.83
2022,10,04,20,26,905.83
2022,10,04,20,27,905.83
2022,10,04,20,28,905.83
2022,10,04,20,29,905.83
2022,10,04,20,30,905.83
2022,10,04,20,31,905.83
2022,10,04,20,32,905.83
2022,10,04,20,33,905.83
2022,10,04,20,34,905.83
2022,10,04,20,35,905.83
2022,10,04,20,36,905.83
2022,10,04,20,37,905.83
2022,10,04,20,38,905.83
2022,10,04,20,39,905.83
2022,10,04,20,40,905.83
2022,10,04,20,41,905.83
2022,10,04,20,42,905.83
2022,10,04,20,43,905.83
2022,10,04,20,44,905.83
2022,10,04,20,45,905.83
2022,10,04,20,46,905.83
2022,10,04,20,47,905.83
2022,10,04,20,48,905.83
2022,10,04,20,49,905.83
2022,10,04,20,50,905.83
2022,10,04,20,51,905.83
2022,10,04,20,52,905.83
2022,10,04,20,53,905.83
2022,10,04,20,54,905.83
2022,10,04,20,55,905.83
2022,10,04,20,56,905.83
2022,10,04,20,57,905.83
2022,10,04,20,58,905.83
2022,10,04,20,59,905.83
2022,10,04,21,00,905.83
2022,10,04,21,01,905.83
2022,10,04,21,02,905.83
2022,10,04,21,03,905.83
2022,10,04,21,04,905.83
2022,10,04,21,05,905.83
2022,10,04,21,06,905.83
2022,10,04,21,07,905.83
2022,10,04,21,08,905.83
2022,10,04,21,09,905.83
2022,10,04,21,10,905.83
2022,10,04,21,11,905.83
2022,10,04,21,12,905.83
2022,10,04,21,13,905.83
2022,10,04,21,14,905.83
2022,10,04,21,15,905.83
2022,10,04,21,16,905.83
2022,10,04,21,17,905.83
2022,10,04,21,18,905.83
2022,10,04,21,19,905.83
2022,10,04,21,20,905.83
2022,10,04,21,21,905.83
2022,10,04,21,22,905.83
2022,10,04,21,23,905.83
2022,10,04,21,24,905.83
2022,10,04,21,25,905.83
2022,10,04,21,26,905.83
2022,10,04,21,27,905.83
2022,10,04,21,28,905.83
2022,10,04,21,29,905.83
2022,10,04,21,30,905.83
2022,10,04,21,31,905.83
2022,10,04,21,32,905.83
2022,10,04,21,33,905.83
2022,10,04,21,34,905.83
2022,10,04,21,35,905.83
2022,10,04,21,36,905.83
2022,10,04,21,37,905.83
2022,10,04,21,38,905.83
2022,10,04,21,39,905.83
2022,10,04,21,40,905.83
2022,10,04,21,41,905.83
2022,10,04,21,42,905.83
2022,10,04,21,43,905.83
2022,10,04,21,44,905.83
2022,10,04,21,45,905.83
2022,10,04,21,46,905.83
2022,10,04,21,47,905.83
2022,10,04,21,48,905.83
2022,10,04,21,49,905.83
2022,10,04,21,50,905.83
2022,10,04,21,51,905.83
2022,10,04,21,52,905.83
2022,10,04,21,53,905.83
2022,10,04,21,54,905.83
2022,10,04,21,55,905.83
2022,10,04,21,56,905.83
2022,10,04,21,57,905.83
2022,10,04,21,58,905.83
2022,10,04,21,59,905.83
2022,10,04,22,00,905.83
2022,10,04,22,01,905.83
2022,10,04,22,02,905.83
2022,10,04,22,03,905.83
2022,10,04,22,04,905.83
2022,10,04,22,05,905.83
2022,10,04,22,06,905.83
2022,10,04,22,07,905.83
2022,10,04,22,08,905.83
2022,10,04,22,09,905.83
2022,10,04,22,10,905.83
2022,10,04,22,11,905.83
2022,10,04,22,12,905.83
2022,10,04,22,13,905.83
2022,10,04,22,14,905.83
2022,10,04,22,15,905.83
2022,10,04,22,16,905.83
2022,10,04,22,17,905.83
2022,10,04,22,18,905.83
2022,10,04,22,19,905.83
2022,10,04,22,20,905.83
2022,10,04,22,21,905.83
2022,10,04,22,22,905.83
2022,10,04,22,23,905.83
2022,10,04,22,24,905.83
2022,10,04,22,25,905.83
2022,10,04,22,26,905.83
2022,10,04,22,27,905.83
2022,10,04,22,28,905.83
2022,10,04,22,29,905.83
2022,10,04,22,30,905.83
2022,10,04,22,31,905.83
2022,10,04,22,32,905.83
2022,10,04,22,33,905.83
2022,10,04,22,34,905.83
2022,10,04,22,35,905.83
2022,10,04,22,36,905.83
2022,10,04,22,37,905.83
2022,10,04,22,38,905.83
2022,10,04,22,39,905.83
2022,10,04,22,40,905.83
2022,10,04,22,41,905.83
2022,10,04,22,42,905.83
2022,10,04,22,43,905.83
2022,10,04,22,44,905.83
2022,10,04,22,45,905.83
2022,10,04,22,46,905.83
2022,10,04,22,47,905.83
2022,10,04,22,48,905.83
2022,10,04,22,49,905.83
2022,10,04,22,50,905.83
2022,10,04,22,51,905.83
2022,10,04,22,52,905.83
2022,10,04,22,53,905.83
2022,10,04,22,54,905.83
2022,10,04,22,55,905.83
2022,10,04,22,56,905.83
2022,10,04,22,57,905.83
2022,10,04,22,58,905.83
2022,10,04,22,59,905.83
2022,10,04,23,00,905.83
2022,10,04,23,01,905.83
2022,10,04,23,02,905.83
2022,10,04,23,03,905.83
2022,10,04,23,04,905.83
2022,10,04,23,05,905.83
2022,10,04,23,06,905.83
2022,10,04,23,07,905.83
2022,10,04,23,08,905.83
2022,10,04,23,09,905.83
2022,10,04,23,10,905.83
2022,10,04,23,11,905.83
2022,10,04,23,12,905.83
2022,10,04,23,13,905.83
2022,10,04,23,14,905.83
2022,10,04,23,15,905.83
2022,10,04,23,16,905.83
2022,10,04,23,17,905.83
2022,10,04,23,18,905.83
2022,10,04,23,19,905.83
2022,10,04,23,20,905.83
2022,10,04,23,21,905.83
2022,10,04,23,22,905.83
2022,10,04,23,23,905.83
2022,10,04,23,24,905.83
2022,10,04,23,25,905.83
2022,10,04,23,26,905.83
2022,10,04,23,27,905.83
2022,10,04,23,28,905.83
2022,10,04,23,29,905.83
2022,10,04,23,30,905.83
2022,10,04,23,31,905.83
2022,10,04,23,32,905.83
2022,10,04,23,33,905.83
2022,10,04,23,34,905.83
2022,10,04,23,35,905.83
2022,10,04,23,36,905.83
2022,10,04,23,37,905.83
2022,10,04,23,38,905.83
2022,10,04,23,39,905.83
2022,10,04,23,40,905.83
2022,10,04,23,41,905.83
2022,10,04,23,42,905.83
2022,10,04,23,43,905.83
2022,10,04,23,44,905.83
2022,10,04,23,45,905.83
2022,10,04,23,46,905.83
2022,10,04,23,47,905.83
2022,10,04,23,48,905.83
2022,10,04,23,49,905.83
2022,10,04,23,50,905.83
2022,10,04,23,51,905.83
2022,10,04,23,52,905.83
